This is the latest recevied weather packets stored in our database for station/object KG4WIV. If no packets are shown the sender has not sent any weather packets the latest 10 day(s).
| Time | Temp. | Humidity | Pressure | Rain* | Wind** | Luminosity | Snow |
|---|---|---|---|---|---|---|---|
| 1777731305 | 12.78° C | 76% | 1013.2 hPa | 0 mm | - | - | - |
| 1777721406 | 11.67° C | 76% | 1012.5 hPa | 0 mm | - | - | - |
| 1777712469 | 12.22° C | 88% | 1011.7 hPa | 0 mm | - | - | - |
| 1777711558 | 12.22° C | 88% | 1011.9 hPa | 0 mm | - | - | - |
| 1777709755 | 12.22° C | 91% | 1011.8 hPa | 0 mm | - | - | - |
| 1777708849 | 12.22° C | 91% | 1011.9 hPa | 0 mm | - | - | - |
| 1777707949 | 12.22° C | 93% | 1012.3 hPa | 0 mm | - | - | - |
| 1777706145 | 12.78° C | 92% | 1012.2 hPa | 0 mm | - | - | - |
| 1777702541 | 12.78° C | 91% | 1012.9 hPa | 0 mm | - | - | - |
| 1777701668 | 13.33° C | 89% | 1013.1 hPa | 0 mm | - | - | - |
| 1777698953 | 13.89° C | 86% | 1012.9 hPa | 0 mm | - | - | - |
| 1777696237 | 14.44° C | 81% | 1012.9 hPa | 0 mm | - | - | - |
| 1777693531 | 14.44° C | 86% | 1013.7 hPa | 0 mm | - | - | - |
| 1777688132 | 14.44° C | 85% | 1013.8 hPa | 0 mm | - | - | - |
| 1777687226 | 15° C | 84% | 1013.6 hPa | 0 mm | - | - | - |
| 1777686326 | 15° C | 83% | 1013.5 hPa | 0 mm | - | - | - |
| 1777681830 | 16.11° C | 77% | 1012.8 hPa | 0 mm | - | - | - |
| 1777680932 | 16.11° C | 76% | 1012.9 hPa | 0 mm | - | - | - |
| 1777678250 | 17.22° C | 71% | 1012.6 hPa | 0 mm | - | - | - |
| 1777676424 | 17.22° C | 68% | 1012.7 hPa | 0 mm | - | - | - |
| 1777672827 | 18.33° C | 66% | 1012.2 hPa | 0 mm | - | - | - |
| 1777669223 | 18.33° C | 60% | 1012.8 hPa | 0 mm | - | - | - |
| 1777666518 | 17.78° C | 61% | 1013.9 hPa | 0 mm | - | - | - |
| 1777664716 | 17.78° C | 58% | 1013.8 hPa | 0 mm | - | - | - |
| 1777662011 | 17.78° C | 59% | 1013.9 hPa | 0 mm | - | - | - |
* Rain latest hour (hover to see other rain measurements)
** Current wind speed in m/s (hover to see current wind gust speed)